Regional Weather Roundup
Issued by NWS

Home | Current Version | Previous Version | Text Only | Print | Product List | Glossary On
Versions: 1 2 3 4 5 6 7 8 9 10 11 12 13 14 15 16 17 18 19 20 21 22 23 24 25 26 27 28 29 30 31 32 33 34 35 36 37 38 39 40 41 42 43 44 45 46 47 48 49 50
000
ASUS43 KTOP 280808
RWRKS

WEATHER ROUNDUP FOR KANSAS
NATIONAL WEATHER SERVICE GOODLAND KS
300 AM CDT WED JUN 28 2017

NOTE:  "FAIR" INDICATES FEW OR NO CLOUDS BELOW 12,000 FEET WITH NO
SIGNIFICANT WEATHER AND/OR OBSTRUCTIONS TO VISIBILITY.

KSZ001>006-013>018-027>032-041>047-280900-
NORTHWEST KANSAS

CITY           SKY/WX    TMP DP  RH WIND       PRES   REMARKS
GOODLAND       CLOUDY    65  60  84 S12       29.79F
HAYS           LGT RAIN  72  60  66 SW22G31   29.84S
HILL CITY      CLOUDY    75  59  57 S23G30    29.74F
RUSSELL        TSTM      73  67  81 SW25G43   29.81F
$$

KSZ061>065-074>080-084>089-280900-
SOUTHWEST KANSAS

CITY           SKY/WX    TMP DP  RH WIND       PRES   REMARKS
DODGE CITY     CLOUDY    76  60  57 S10       29.87R
ELKHART          N/A     72  46  39 S20         N/A
GARDEN CITY    MOCLDY    77  59  53 E10G18    29.83F
GREAT BEND     CLOUDY    78  66  66 W13       29.87R
LIBERAL        CLEAR     74  59  59 S18       29.78F
PRATT          MOCLDY    73  64  73 S15G21    29.84S
$$

KSZ066>073-081>083-090>101-280900-
SOUTHEAST KANSAS

CITY           SKY/WX    TMP DP  RH WIND       PRES   REMARKS
CHANUTE          N/A    N/A N/A N/A MISG      29.90F
COFFEYVILLE    CLEAR     72  65  78 S8        29.90F HAZE
HUTCHINSON     CLOUDY    77  66  68 S18       29.83R
MEDICINE LODGE   N/A     76  66  71 S15       29.82S
NEWTON         CLOUDY    75  66  73 S21       29.84S
PARSONS        CLEAR     73  64  73 S7        29.91F
WICHITA INTL   PTCLDY    76  66  71 S17       29.84R
WICHITA JABRA  PTCLDY    75  66  73 S17G25    29.83F
WICHITA MCCONL CLOUDY    76  65  68 S21G28    29.84F
WINFIELD       PTCLDY    74  67  78 S17       29.86F
$$

KSZ007>012-019>026-033>040-048>060-102>105-280900-
NORTHEAST KANSAS

CITY           SKY/WX    TMP DP  RH WIND       PRES   REMARKS
CONCORDIA      LGT RAIN  73  68  84 SW22G36   29.76R
EMPORIA        CLOUDY    73  66  78 S18       29.83F
LAWRENCE       MOCLDY    74  66  76 S18G26    29.83F
MANHATTAN      CLOUDY    77  66  68 S18G32    29.76F
MARYSVILLE     CLOUDY    77  64  65 S9G20     29.77R
OLATHE IND     PTCLDY    72  64  76 S14       29.88F
OLATHE EXE     PTCLDY    71  65  81 S15       29.87F
SALINA         MOCLDY    80  65  59 S22G32    29.78R
TOPEKA BILLARD CLOUDY    76  66  71 S16G25    29.80F
TOPEKA FORBES  CLOUDY    77  65  66 S18G26    29.81F
$$



USA.gov is the U.S. government's official web portal to all federal, state and local government web resources and services.